Regional Weather Roundup
Issued by NWS Wakefield, VA

Home | Current Version | Previous Version | Text Only | Print | Product List | Glossary Off
Versions: 1 2 3 4 5 6 7 8 9 10 11 12 13 14 15 16 17 18 19 20 21 22 23 24 25 26 27 28 29 30 31 32 33 34 35 36 37 38 39 40 41 42 43 44 45 46 47 48 49 50

000
ASUS41 KAKQ 012110
RWRAKQ

REGIONAL WEATHER ROUNDUP
NATIONAL WEATHER SERVICE WAKEFIELD VA
400 PM EST SUN MAR 01 2015

Note: "fair" indicates few or no clouds below 12,000 feet with no
significant weather and/or obstructions to visibility. * = Denotes
station may not report precipitation (e.g., rain,snow,etc.),
thunder or fog.

VAZ042-051-052>054-056-012200-
NORTHERN VIRGINIA

CITY           SKY/WX    TMP DP  RH WIND       PRES   REMARKS
WASH NATIONAL  FRZ RAIN  32  27  81 S10       30.40F WCI  24
DULLES         FRZ RAIN  29  26  89 S6        30.38F
FORT BELVOIR   CLOUDY    32  28  86 CALM      30.40F
QUANTICO       MIX PCPN  30  27  88 S7        30.42F FOG
FREDERICKSBRG* MIX PCPN  32  32 100 CALM      30.40F
STAFFORD*      MIX PCPN  30  32 100 S5        30.43F
WARRENTON      CLOUDY    31  31 100 S6        30.36F
CULPEPER*      CLOUDY    30  28  93 S6        30.37F
MANASSAS*      CLOUDY    30  28  93 S7        30.39F
LEESBURG*      MIX PCPN  32  30  93 S9        30.36F
WINCHESTER     MIX PCPN  32  28  86 S3        30.30F
FRONT ROYAL*   CLOUDY    32  30  93 CALM      30.29F
LURAY*         CLOUDY    37  32  81 SW7       30.29F
$$

VAZ048-049-060>072-079>083-012200-
CENTRAL AND SOUTH CENTRAL VIRGINIA

CITY           SKY/WX    TMP DP  RH WIND       PRES   REMARKS
RICHMOND       FRZ RAIN  31  28  89 CALM      30.41F FOG
CHESTERFIELD*  CLOUDY    30  19  64 CALM      30.41F
PETERSBURG*    MIX PCPN  32  32  99 NE3       30.41F
HANOVER        MIX PCPN  31  29  92 SE5       30.42F FOG
TAPPAHANNOCK*  DRIZZLE   32  29  87 CALM      30.43F
QUINTON*       CLOUDY    29  28  96 CALM      30.43F
CHARLOTTSVILLE CLOUDY    30  26  85 S6        30.35F
GORDONSVILLE*  CLOUDY    30  28  92 SW5       30.36F
ORANGE*        CLOUDY    32  30  93 CALM      30.38F
LOUISA*        CLOUDY    32  30  93 CALM      30.36F
BUMPASS*       CLOUDY    31  30  96 CALM      30.39F
FARMVILLE*     MIX PCPN  35  31  85 CALM      30.40F
CREWE*         CLOUDY    32  31  95 S3        30.39F
FORT PICKETT*  CLOUDY    31  31  98 CALM      30.40S
CHASE CITY*    CLOUDY    34  34 100 CALM      30.40F
CLARKSVILLE*   CLOUDY    32  32 100 CALM      30.40F
SOUTH HILL*    CLOUDY    31  30  96 CALM      30.45F
LAWRENCEVILLE* CLOUDY    31  31  98 NW3       30.40S
EMPORIA*       MIX PCPN  32  32 100 NW5       30.44R
$$

VAZ088>098-012200-
SOUTHEAST VIRGINIA

CITY           SKY/WX    TMP DP  RH WIND       PRES   REMARKS
NORFOLK        CLOUDY    31  28  89 N12       30.42S FOG     WCI  22
VIRGINIA BEACH CLOUDY    34  28  79 N10       30.40S FOG
NORFOLK NAVAL  CLOUDY    34  29  82 N8        30.42F
WEST POINT*    CLOUDY    33  30  88 CALM      30.45F
SALUDA*        CLOUDY    30  28  94 CALM      30.42F
NEWPORT NEWS   LGT RAIN  34  30  85 N5        30.41F FOG
LANGLEY AFB    DRIZZLE   32  28  86 NE6       30.41F FOG
FORT EUSTIS    FRZ DRZL  32  32 100 VRB5      30.39F
WILLIAMSBURG*  PTSUNNY   36  32  87 CALM      30.42F
HR EXEC AP*    CLOUDY    34  28  80 N6        30.42F
FRANKLIN*      DRIZZLE   32  31  96 NE5       30.40F
WAKEFIELD      MIX PCPN  32  29  88 N5        30.40F FOG
$$

VAZ020-022-025-037-045-012200-
WEST CENTRAL AND SOUTHWEST VIRGINIA

CITY           SKY/WX    TMP DP  RH WIND       PRES   REMARKS
STAUNTON*      CLOUDY    37  28  71 S8        30.32F
WAYNESBORO*    CLOUDY    35  29  78 CALM      30.30F
HOT SPRINGS VA CLOUDY    37  37 100 W15       30.23F FOG
LYNCHBURG      CLOUDY    31  30  96 SW3       30.38F
DANVILLE       CLOUDY    34  31  88 SW3       30.39F
SOUTH BOSTON*  CLOUDY    32  31  96 CALM      30.40F
MARTINSVILLE   CLOUDY    36  36  97 CALM      30.39F
ROANOKE        PTSUNNY   36  25  64 CALM      30.36F
BLACKSBURG     CLOUDY    44  31  62 W3        30.33S
DUBLIN*        CLOUDY    44  32  63 CALM      30.31F
MARION*        CLOUDY    49  34  55 SW7       30.31F
HILLSVILLE*    PTSUNNY   51  43  75 S7        30.29S
RICHLANDS*     DRIZZLE   45  40  83 W10       30.30S
WISE*          CLOUDY    43  43 100 SW14      30.31S FOG
ABINGDON*      CLOUDY    52  35  52 CALM      30.31S
$$

MDZ021>025-VAZ099-100-012200-
SOUTHERN MARYLAND AND THE DELMARVA PENINSULA

CITY           SKY/WX    TMP DP  RH WIND       PRES   REMARKS
PATUXENT RIVER FRZ RAIN  28  25  88 E3        30.43F FOG
BAY BRIDGE APT MIX PCPN  30  30 100 S5        30.43S
LEONARDTOWN    CLOUDY    30  28  93 CALM      30.44F
DOVER          FRZ RAIN  30  30 100 S3        30.42F FOG
GEORGETOWN     MIX PCPN  30  29  96 CALM      30.41F FOG
EASTON         LGT SNOW  30  30 100 CALM      30.45F
CAMBRIDGE      CLOUDY    32  30  93 CALM      30.43F
SALISBURY      LGT RAIN  34  30  85 N3        30.41F FOG
OCEAN CITY     MIX PCPN  31  30  96 N5        30.42F FOG
WALLOPS ISLAND MIX PCPN  32  31  96 N7        30.42F FOG
ACCOMACK*      MIX PCPN  32  30  93 N7        30.42F
$$

NCZ012>017-030>032-012200-
NORTH CENTRAL AND EASTERN NORTH CAROLINA

CITY           SKY/WX    TMP DP  RH WIND       PRES   REMARKS
ROANOKE RAPIDS DRIZZLE   32  32 100 N3        30.41F
RALEIGH        LGT RAIN  34  31  88 NE3       30.41F FOG
ELIZABETH CITY RAIN      44  42  93 N6        30.38F FOG
AHOSKIE*       LGT SNOW  33  32  96 N6        30.40F
EDENTON*       RAIN      41  41  97 N5        30.37F
CURRITUCK*     DRIZZLE   40  38  93 CALM      30.39F
KILL DEVIL HLS LGT RAIN  49  49 100 SE6       30.36F
MANTEO         CLOUDY    54  50  87 SE7       30.36F
CAPE HATTERAS  CLOUDY    52  47  83 S12       30.37F
TARBORO*       LGT RAIN  35  34  95 W5        30.42F
GOLDSBORO      CLOUDY    37  37  99 W2        30.39S
WASHINGTON     DRIZZLE   42  41  96 W7        30.39R
GREENVILLE     DRIZZLE   37  37 100 NW6       30.40F
NEW BERN       LGT RAIN  49  46  90 W5        30.39F
WILMINGTON     LGT RAIN  49  46  90 NW6       30.38F
$$

VAZ048-012200-
ELSEWHERE

CITY           SKY/WX    TMP DP  RH WIND       PRES   REMARKS
HARRISBURG PA  FRZ DRZL  27  23  85 E6        30.35F FOG
BALTIMORE      FRZ RAIN  31  29  92 S3        30.38F FOG
ANNAPOLIS      FRZ RAIN  28  26  92 MISG      30.41F FOG
ANDREWS AFB    MIX PCPN  31  29  93 CALM      30.38F
PHILADELPHIA   FRZ RAIN  29  26  89 SW5       30.42F FOG
HENDERSON NC   LGT RAIN  32  31  96 CALM      30.40F
GREENSBORO     CLOUDY    36  34  93 CALM      30.36F FOG
ROCKY MOUNT    RAIN      34  33  96 W9        30.43R FOG
$$

VAZ100-012200-
MARINE

STATION/POSITION TIME  TEMP    WIND        PRES    WAVE   SWELL
                       AIR SEA DIR/SP/G            HT/PER HT/PER
                 (UTC) (F)     (DEG/KT/KT) (MB)    (FT/S) (FT/S)
BRANDYWINE LGT   2100   27 30  140/  4/  5 1030.0F
CAPE MAY NJ      2100   29 32     CALM     1029.8F
LEWES DE         2100   29 30  100/  1/  2 1030.0F
15NM E FENWICK I 2100   31 34              1030.0F   2/ 8
OCEAN-CITY-INLET 2100   31 32   20/  2/  2 1029.8F
WACHAPREAGUE VA  2100   32 32  330/  3/  5 1029.7F
THOMAS POINT MD  2100   27 31     CALM     1030.8F
COVE POINT MD    2100   26        CALM     1030.4F
SOLOMONS ISLAND  2100      32                N/A
BISHOPS HEAD MD  2100   29 31   10/  3/  3 1029.8F
CAMBRIDGE MD     2100   28 32   CALM  /  1 1030.3F
LEWISETTA VA     2100                      1030.4R
RAPPAHANNOCK LGT 2100          350/  9/  9 1030.4F
STINGRAY PT      2100   29      10/  4/  6   N/A
YORK RVR RNG VA  2100   30     350/  6/  7 1029.7F
YORKTOWN VA      2100   31 33  310/  6/  6 1030.0F
DOMINION TERM VA 2100   33     320/  1/  3 1030.2F
KIPTOPEKE VA     2100      37  340/  9/ 11   N/A
CHES BAY BRIDGE  2100   30 33  340/ 12/ 14 1029.7S
CAPE HENRY VA    2100   30     330/ 12/ 13 1028.4F
CHESAPEAKE LGHT  2000   33     350/ 13/ 14 1030.6F
WILLOUBY STN VA  2100          350/  8/  8 1030.5F
S CRANEY ISL VA  2100          350/  8/ 10 1030.2S
CAPE HENRY BUOY  2100      35                N/A     4/ 5
1ST LANDING BUOY 2100   31     340/ 14/ 16 1029.5F
OFFSHORE WE BUOY 2100      37                N/A     4/ 5   3/ 5
64NM E OF VA BCH 2100   60 63  180/ 23/ 27 1027.9F   5/ 5   2/10
DUCK PIER NC     2100   35 35   20/  4/  6 1027.9S
44100 DUCK FRF   2000      36                N/A     4/ 5
44056 DUCK FRF   2100      34                N/A     3/ 5
OREGON INLET NC  2100   47 39  120/  6/  8 1028.7F
HATTERAS NC      2100   52 40  150/ 11/ 14 1028.3F
CAPE LOOKOUT NC  2000   56     160/ 10/ 10 1028.6F
$$


USA.gov is the U.S. government's official web portal to all federal, state and local government web resources and services.